Sacramento International Airport
KSMF : now visible

Airfield :











YOU CAN JOIN US ON...

 
LOGIN :

Register | Disclaimer

   EN    FR    IT 

 









Legend :    VFR   Marginal VFR   IFR   Intensive IFR   Very Intensive IFR
Visi :
Ceiling :
>= 8 km
>= 3000ft
5 to 8 km
1000 to 3000 ft
1500m to 5 km
500 to 1000 ft
800 to 1500m
200 to 500 ft
< 800m
< 200 ft
Symbols :   Thunderstorms  Fog  Heavy snow  Heavy precipitations  Wind > 20 kt






- Airport Elevation : 27 ft
- IATA code : SMF


KSMF - Sacramento International

CURRENT METAR :
  • 250653Z 14007KT 10SM CLR 13/09 A2989 RMK AO2 SLP119 T01330094

EXPIRED METARs :
  • 250553Z 11006KT 10SM CLR 13/09 A2989 RMK AO2 SLP121 T01330089 10222 20133 53011
  • 250453Z 16006KT 10SM CLR 14/09 A2987 RMK AO2 SLP113 T01440094

TAF KSMF
Valid from the 25 at 06:00 until the 26 at 06:00 UTC


250535Z 2506/2606 15005KT P6SM SKC
TEMPO 2513/2517 BKN010
FM251800 34012KT P6SM SKC
FM252100 33019G29KT P6SM SKC
FM260000 34022G32KT P6SM SKC WS020/36036KT
KZOA FIR / North America



MET'MAP, your aeronautical weather chart ! - Copyright ORBIFLY December 2007 - Disclaimer

ORBIFLY MET'MAP TEAM :

Programming & Development : Alexandra Zaïnal
Concept & original design : Baudouin d'Aumeries
Assistance for programming : Marc-Olivier Méhu
Technical & hardware support : Manuel Goepfert

Contact : metmap@orbifly.com




SOURCES & CREDITS :

   NOAA       Earth
Advisory